Location: Asbacherhof
(48.8543°N, 10.7903°E)
Time: 16:42:43
(UTC+00:00)

Meteor 1-24 Rocket - Pass Details

Date: 26 May 2022
Orbit: 790 x 927 km, 81.2° (Epoch: 06 July)

Event Time Altitude Azimuth Distance (km) Brightness Sun altitude
Exits shadow 00:35:17 21° 160° (SSE) 1,805 5.0 -17.7°
Maximum altitude 00:38:47 50° 95° (E) 1,059 4.3 -17.5°
Drops below altitude 10° 00:44:01 10° 21° (NNE) 2,417 7.4 -17.2°
Sets 00:46:26 0° 17° (NNE) 3,338 8.6 -17.1°
